Location: Beadle
(51.4667°N, 109.0000°W)
Time: 05:50:31
(UTC+00:00)

Altair - Pass Details

Date: 05 June 2022
Orbit: 1501 x 1682 km, 47.2° (Epoch: 30 June)

Event Time Altitude Azimuth Distance (km) Brightness Sun altitude
Rises 20:31:17 0° 217° (SW) 4,748 10.6 57.6°
Reaches altitude 10° 20:34:32 10° 211° (SSW) 3,791 10.3 57.3°
Maximum altitude 20:43:19 41° 145° (SE) 2,217 9.1 56.4°
Drops below altitude 10° 20:52:24 10° 81° (E) 3,921 9.5 55.5°
Sets 20:55:49 0° 74° (ENE) 4,925 9.9 55.2°
